When you browse on this site, cookies collect data to enhance your experience and personalize the content and advertising you see.
Visit our Privacy Policy to learn more. By continuing to use the site, you agree to this use of cookies and data.
  • In Sweden
  • List of Countries
  • For 7 days
  • Water Temperature
  • Weather Map
  • Weather Widgets
  • user-avatar
    Login

    Hourly Weather Calcutta

    Today, 24 January, Friday

    Time Temperature Precipitation Wind Pressure Humidity
    00:00 +21°C° 0 mm 1 mps 761 mmHg 56%
    01:00 +20°C° 0 mm 2 mps 760 mmHg 54%
    02:00 +19°C° 0 mm 2 mps 760 mmHg 52%
    03:00 +19°C° 0 mm 2 mps 760 mmHg 50%
    04:00 +18°C° 0 mm 2 mps 760 mmHg 48%
    05:00 +17°C° 0 mm 2 mps 760 mmHg 46%
    06:00 +16°C° 0 mm 2 mps 761 mmHg 49%
    07:00 +18°C° 0 mm 2 mps 761 mmHg 45%
    08:00 +19°C° 0 mm 3 mps 762 mmHg 40%
    09:00 +21°C° 0 mm 3 mps 762 mmHg 36%
    10:00 +22°C° 0 mm 3 mps 762 mmHg 33%
    11:00 +24°C° 0 mm 3 mps 761 mmHg 30%
    12:00 +26°C° 0 mm 3 mps 761 mmHg 26%
    13:00 +26°C° 0 mm 3 mps 760 mmHg 24%
    14:00 +27°C° 0 mm 4 mps 760 mmHg 22%
    15:00 +28°C° 0 mm 4 mps 759 mmHg 20%
    16:00 +26°C° 0 mm 3 mps 759 mmHg 21%
    17:00 +25°C° 0 mm 3 mps 759 mmHg 23%
    18:00 +23°C° 0 mm 2 mps 759 mmHg 24%
    19:00 +21°C° 0 mm 2 mps 760 mmHg 26%
    20:00 +21°C° 0 mm 2 mps 760 mmHg 27%
    21:00 +20°C° 0 mm 2 mps 761 mmHg 28%
    22:00 +19°C° 0 mm 2 mps 761 mmHg 31%
    23:00 +19°C° 0 mm 1 mps 761 mmHg 33%

    Tomorrow, 25 January, Saturday

    Time Temperature Precipitation Wind Pressure Humidity
    00:00 +18°C° 0 mm 1 mps 761 mmHg 35%
    01:00 +16°C° 0 mm 1 mps 760 mmHg 37%
    02:00 +16°C° 0 mm 1 mps 760 mmHg 38%
    03:00 +15°C° 0 mm 2 mps 760 mmHg 40%
    04:00 +15°C° 0 mm 2 mps 760 mmHg 41%
    05:00 +15°C° 0 mm 2 mps 760 mmHg 43%
    06:00 +14°C° 0 mm 2 mps 760 mmHg 44%
    07:00 +16°C° 0 mm 2 mps 761 mmHg 42%
    08:00 +17°C° 0 mm 2 mps 761 mmHg 40%
    09:00 +19°C° 0 mm 2 mps 761 mmHg 38%
    10:00 +21°C° 0 mm 2 mps 761 mmHg 33%
    11:00 +24°C° 0 mm 3 mps 761 mmHg 28%
    12:00 +25°C° 0 mm 3 mps 761 mmHg 24%
    13:00 +26°C° 0 mm 3 mps 760 mmHg 22%
    14:00 +27°C° 0 mm 4 mps 759 mmHg 20%
    15:00 +28°C° 0 mm 4 mps 758 mmHg 19%
    16:00 +26°C° 0 mm 3 mps 758 mmHg 21%
    17:00 +25°C° 0 mm 3 mps 758 mmHg 23%
    18:00 +23°C° 0 mm 2 mps 758 mmHg 25%
    19:00 +22°C° 0 mm 1 mps 758 mmHg 28%
    20:00 +21°C° 0 mm 1 mps 759 mmHg 31%
    21:00 +20°C° 0 mm 1 mps 760 mmHg 33%
    22:00 +19°C° 0 mm 1 mps 759 mmHg 36%
    23:00 +19°C° 0 mm 1 mps 759 mmHg 39%

    Day after tomorrow, 26 January, Sunday

    Time Temperature Precipitation Wind Pressure Humidity
    00:00 +16°C° 0 mm 0 mps 759 mmHg 41%
    01:00 +16°C° 0 mm 0 mps 759 mmHg 42%
    02:00 +15°C° 0 mm 0 mps 758 mmHg 42%
    03:00 +16°C° 0 mm 1 mps 758 mmHg 43%
    04:00 +16°C° 0 mm 1 mps 758 mmHg 44%
    05:00 +15°C° 0 mm 1 mps 758 mmHg 45%
    06:00 +15°C° 0 mm 1 mps 758 mmHg 46%
    07:00 +18°C° 0 mm 1 mps 759 mmHg 43%
    08:00 +20°C° 0 mm 1 mps 759 mmHg 40%
    09:00 +21°C° 0 mm 1 mps 760 mmHg 36%
    10:00 +23°C° 0 mm 2 mps 759 mmHg 32%
    11:00 +25°C° 0 mm 2 mps 759 mmHg 28%
    12:00 +27°C° 0 mm 3 mps 759 mmHg 24%
    13:00 +27°C° 0 mm 3 mps 758 mmHg 23%
    14:00 +28°C° 0 mm 4 mps 757 mmHg 21%
    15:00 +29°C° 0 mm 4 mps 756 mmHg 20%
    16:00 +27°C° 0 mm 4 mps 756 mmHg 22%
    17:00 +26°C° 0 mm 3 mps 756 mmHg 24%
    18:00 +24°C° 0 mm 2 mps 757 mmHg 26%
    19:00 +23°C° 0 mm 2 mps 757 mmHg 28%
    20:00 +22°C° 0 mm 1 mps 757 mmHg 30%
    21:00 +21°C° 0 mm 1 mps 758 mmHg 33%
    22:00 +21°C° 0 mm 1 mps 758 mmHg 35%
    23:00 +20°C° 0 mm 1 mps 758 mmHg 38%

    27 January, Monday

    Time Temperature Precipitation Wind Pressure Humidity
    00:00 +19°C° 0 mm 1 mps 758 mmHg 40%
    01:00 +19°C° 0 mm 1 mps 757 mmHg 43%
    02:00 +17°C° 0 mm 2 mps 757 mmHg 45%
    03:00 +17°C° 0 mm 2 mps 757 mmHg 48%
    04:00 +16°C° 0 mm 1 mps 757 mmHg 51%
    05:00 +16°C° 0 mm 1 mps 757 mmHg 53%
    06:00 +16°C° 0 mm 1 mps 758 mmHg 56%
    07:00 +18°C° 0 mm 1 mps 758 mmHg 52%
    08:00 +19°C° 0 mm 2 mps 759 mmHg 49%
    09:00 +20°C° 0 mm 2 mps 759 mmHg 45%
    10:00 +22°C° 0 mm 3 mps 759 mmHg 40%
    11:00 +25°C° 0 mm 3 mps 759 mmHg 35%
    12:00 +27°C° 0 mm 4 mps 758 mmHg 30%
    13:00 +27°C° 0 mm 4 mps 758 mmHg 27%
    14:00 +28°C° 0 mm 4 mps 757 mmHg 25%
    15:00 +29°C° 0 mm 5 mps 756 mmHg 22%
    16:00 +27°C° 0 mm 4 mps 756 mmHg 24%
    17:00 +26°C° 0 mm 3 mps 756 mmHg 27%
    18:00 +24°C° 0 mm 2 mps 756 mmHg 29%
    19:00 +23°C° 0 mm 1 mps 757 mmHg 30%
    20:00 +22°C° 0 mm 1 mps 757 mmHg 31%
    21:00 +22°C° 0 mm 1 mps 758 mmHg 33%
    22:00 +21°C° 0 mm 1 mps 758 mmHg 34%
    23:00 +21°C° 0 mm 1 mps 758 mmHg 36%

    28 January, Tuesday

    Time Temperature Precipitation Wind Pressure Humidity
    00:00 +20°C° 0 mm 1 mps 758 mmHg 37%
    01:00 +20°C° 0 mm 1 mps 757 mmHg 38%
    02:00 +19°C° 0 mm 1 mps 757 mmHg 40%
    03:00 +19°C° 0 mm 1 mps 757 mmHg 41%
    04:00 +18°C° 0 mm 1 mps 757 mmHg 41%
    05:00 +18°C° 0 mm 1 mps 757 mmHg 42%
    06:00 +18°C° 0 mm 1 mps 758 mmHg 43%
    07:00 +19°C° 0 mm 1 mps 758 mmHg 40%
    08:00 +21°C° 0 mm 1 mps 759 mmHg 37%
    09:00 +23°C° 0 mm 1 mps 759 mmHg 34%
    10:00 +25°C° 0 mm 1 mps 759 mmHg 31%
    11:00 +27°C° 0 mm 1 mps 759 mmHg 28%
    12:00 +28°C° 0 mm 1 mps 759 mmHg 25%
    13:00 +29°C° 0 mm 1 mps 758 mmHg 24%
    14:00 +30°C° 0 mm 1 mps 757 mmHg 23%
    15:00 +30°C° 0 mm 2 mps 757 mmHg 22%
    16:00 +29°C° 0 mm 1 mps 757 mmHg 25%
    17:00 +28°C° 0 mm 1 mps 757 mmHg 28%
    18:00 +26°C° 0 mm 1 mps 757 mmHg 31%
    19:00 +25°C° 0 mm 1 mps 758 mmHg 38%
    20:00 +24°C° 0 mm 1 mps 758 mmHg 45%
    21:00 +23°C° 0 mm 2 mps 759 mmHg 52%
    22:00 +22°C° 0 mm 1 mps 759 mmHg 59%
    23:00 +22°C° 0 mm 1 mps 759 mmHg 66%

    29 January, Wednesday

    Time Temperature Precipitation Wind Pressure Humidity
    00:00 +21°C° 0 mm 1 mps 759 mmHg 72%
    01:00 +21°C° 0 mm 1 mps 759 mmHg 74%
    02:00 +21°C° 0 mm 1 mps 758 mmHg 76%
    03:00 +21°C° 0 mm 1 mps 758 mmHg 77%
    04:00 +21°C° 0 mm 1 mps 758 mmHg 77%
    05:00 +21°C° 0 mm 1 mps 758 mmHg 76%
    06:00 +21°C° 0 mm 1 mps 758 mmHg 75%
    07:00 +21°C° 0.6 mm 2 mps 759 mmHg 73%
    08:00 +23°C° 0.6 mm 2 mps 760 mmHg 71%
    09:00 +24°C° 0.6 mm 2 mps 760 mmHg 69%
    10:00 +25°C° 0.4 mm 3 mps 760 mmHg 63%
    11:00 +27°C° 0.4 mm 3 mps 760 mmHg 58%
    12:00 +29°C° 0.4 mm 4 mps 760 mmHg 53%
    13:00 +28°C° 0.3 mm 4 mps 759 mmHg 56%
    14:00 +28°C° 0.3 mm 4 mps 759 mmHg 58%
    15:00 +28°C° 0.3 mm 5 mps 758 mmHg 61%
    16:00 +27°C° 0.2 mm 4 mps 758 mmHg 64%
    17:00 +26°C° 0.2 mm 4 mps 758 mmHg 67%
    18:00 +25°C° 0.2 mm 4 mps 758 mmHg 70%
    19:00 +23°C° 0.4 mm 4 mps 759 mmHg 72%
    20:00 +22°C° 0.4 mm 4 mps 759 mmHg 74%
    21:00 +22°C° 0.4 mm 4 mps 759 mmHg 76%
    22:00 +21°C° 0.1 mm 3 mps 759 mmHg 78%
    23:00 +21°C° 0.1 mm 3 mps 759 mmHg 80%
    Show more